Lawrence, KS

10:43 AM CDT on April 30, 2017 (GMT -0500)
Lawrence Municipal

Weather History for KLWC - January, 2014

Change the Weather History Date:

Sunday, January 19, 2014

  Actual Average Record
Temperature  
Mean Temperature 40 °F 29 °F  
Max Temperature 65 °F 40 °F 67 °F (2015)
Min Temperature 15 °F 18 °F -2 °F (2008)
Degree Days  
Heating Degree Days 25 36  
Month to date heating degree days 711 684  
Since 1 July heating degree days 2862 2727  
Cooling Degree Days 0 0  
Month to date cooling degree days 0 0  
Year to date cooling degree days 0 0  
Moisture  
Dew Point 20 °F    
Average Humidity 54    
Maximum Humidity 88    
Minimum Humidity 19    
Precipitation  
Precipitation 0.00 in 0.03 in 0.13 in (2011)
Month to date precipitation 0.07 0.56  
Year to date precipitation 0.07 0.56  
Sea Level Pressure  
Sea Level Pressure 29.95 in    
Wind  
Wind Speed 7 mph (WSW)    
Max Wind Speed 25 mph    
Max Gust Speed 31 mph    
Visibility 10 miles    
Events      
T = Trace of Precipitation, MM = Missing Value Source: NWS Daily Summary

Daily Weather History Graph

Daily Weather History Graph

Search for Another Location

Airport or City:

Trip Planner

Search our weather history database for the weather conditions in past years. The results will help you decide how hot, cold, wet, or windy it might be!

Date:

Astronomy

Jan. 19, 2014 Rise Set
Actual Time 7:36 AM CST 5:27 PM CST
Civil Twilight 7:07 AM CST 5:56 PM CST
Nautical Twilight 6:34 AM CST 6:28 PM CST
Astronomical Twilight 6:02 AM CST 7:00 PM CST
Moon 9:03 PM CST (1/19) 9:08 AM CST (1/19)
Length of Visible Light 10h 48m
Length of Day
9h 50m
Waning Gibbous, 89% of the Moon is Illuminated
Jan 19
Waning Gibbous
Jan 23
Last Quarter
Jan 30
New
Feb 6
First Quarter
Feb 14
Full

Hourly Weather History & Observations

Time (CST) Temp. Windchill Dew Point Humidity Pressure Visibility Wind Dir Wind Speed Gust Speed Precip Events Conditions
12:52 AM 17.1 °F - 10.9 °F 77% 30.14 in 10.0 mi Calm Calm - N/A   Clear
1:52 AM 16.0 °F - 10.9 °F 81% 30.14 in 10.0 mi Calm Calm - N/A   Clear
2:52 AM 16.0 °F - 10.0 °F 77% 30.13 in 10.0 mi Calm Calm - N/A   Clear
3:52 AM 15.1 °F - 10.9 °F 84% 30.12 in 10.0 mi Calm Calm - N/A   Clear
4:52 AM 16.0 °F - 12.0 °F 84% 30.07 in 10.0 mi Calm Calm - N/A   Clear
5:52 AM 25.0 °F - 18.0 °F 75% 30.05 in 10.0 mi Calm Calm - N/A   Clear
6:52 AM 30.0 °F 21.7 °F 21.9 °F 72% 30.04 in 10.0 mi WSW 9.2 mph - N/A   Clear
7:52 AM 30.0 °F 23.2 °F 21.9 °F 72% 30.04 in 10.0 mi West 6.9 mph - N/A   Clear
8:52 AM 35.1 °F 26.4 °F 24.1 °F 64% 30.02 in 10.0 mi WSW 12.7 mph - N/A   Clear
9:52 AM 43.0 °F 36.4 °F 24.1 °F 47% 30.00 in 10.0 mi SW 12.7 mph 19.6 mph N/A   Clear
10:52 AM 48.0 °F - 24.1 °F 39% 29.96 in 10.0 mi SW 9.2 mph 20.7 mph N/A   Clear
11:52 AM 55.0 °F - 21.9 °F 28% 29.94 in 10.0 mi WSW 12.7 mph - N/A   Clear
12:52 PM 59.0 °F - 21.0 °F 23% 29.88 in 10.0 mi WSW 17.3 mph 25.3 mph N/A   Clear
1:52 PM 63.0 °F - 21.0 °F 20% 29.85 in 10.0 mi WSW 16.1 mph 27.6 mph N/A   Clear
2:52 PM 64.9 °F - 21.0 °F 19% 29.82 in 10.0 mi WSW 13.8 mph - N/A   Clear
3:52 PM 64.0 °F - 21.0 °F 19% 29.81 in 10.0 mi WSW 13.8 mph - N/A   Clear
4:52 PM 62.1 °F - 21.9 °F 21% 29.81 in 10.0 mi WSW 12.7 mph - N/A   Clear
5:52 PM 54.0 °F - 21.9 °F 29% 29.83 in 10.0 mi WSW 5.8 mph - N/A   Clear
6:52 PM 39.0 °F - 21.0 °F 49% 29.85 in 10.0 mi Calm Calm - N/A   Clear
7:52 PM 44.1 °F 41.5 °F 21.9 °F 42% 29.85 in 10.0 mi West 4.6 mph - N/A   Clear
8:52 PM 37.0 °F - 21.9 °F 54% 29.85 in 10.0 mi Calm Calm - N/A   Clear
9:52 PM 34.0 °F 28.8 °F 21.9 °F 61% 29.86 in 10.0 mi West 5.8 mph - N/A   Clear
10:52 PM 39.0 °F 32.8 °F 23.0 °F 53% 29.88 in 10.0 mi NW 9.2 mph - N/A   Clear
11:52 PM 35.1 °F 28.6 °F 23.0 °F 61% 29.88 in 10.0 mi NNW 8.1 mph - N/A   Clear